ONEWEB-0144 (47290 NORAD) Tracking and Keplerian Element Data

This shows tracking and keplerian element data for the satellite.

Feedback or suggestion? Click here.




ElementValue
Catalog47290
NameONEWEB-0144
Epoch Orbit175
Epoch Day20.91667824
Epoch Year2021
RAAN28.0044
Inclination87.3636
Eccentricity0.0010318
Argument of Perigee153.7649
Mean Anonmoly146.2207
Mean Motion14.93811664
Decay Rate-0.01363488
L11 47290U 20100AJ 21020.91667824 -.01363488 00000-0 -14007+0 0 9999
L22 47290 87.3636 28.0044 0010318 153.7649 146.2207 14.93811664 1751

Live tracking and technical data element details for ONEWEB-0144 (NORAD 47290). ONEWEB-0144 can be tracked NOW for your location showing map with azimuth and elevation plus other details from your city location.

Track the satellite on the map from your city or location and see movement details for azimuth, elevation, latitude, longitude, range, height, and movement on the map or in text.







IsCatalogInMostPopularTable: catalog: 47290, numindb: 14
Update: records affected: 1



GetName: 47290 ONEWEB-0144

Hit Count: updated at: Sat, 23 Jan 2021 16:39:35 GMT